This is the latest recevied weather packets stored in our database for station/object IA5FYI-13. If no packets are shown the sender has not sent any weather packets the latest 1 day(s).
| Time | Temp. | Humidity | Pressure | Rain* | Wind** | Luminosity | Snow |
|---|---|---|---|---|---|---|---|
| 1778040614 | 17.22° C | 92% | 1008.1 hPa | 6.1 mm | - | - | - |
| 1778040034 | 17.22° C | 93% | 1008.1 hPa | 12.45 mm | - | - | - |
| 1778039709 | 17.22° C | 93% | 1007.8 hPa | 9.65 mm | - | - | - |
| 1778039413 | 17.22° C | 93% | 1008.1 hPa | 9.65 mm | - | - | - |
| 1778039112 | 17.22° C | 93% | 1007.8 hPa | 8.38 mm | - | - | - |
| 1778038813 | 17.22° C | 94% | 1007.8 hPa | 8.38 mm | - | - | - |
| 1778038509 | 17.22° C | 94% | 1007.8 hPa | 7.62 mm | - | - | - |
| 1778036709 | 17.22° C | 93% | 1007.8 hPa | 0.25 mm | - | - | - |
| 1778036110 | 17.22° C | 93% | 1007.5 hPa | 6.1 mm | - | - | - |
| 1778035813 | 16.11° C | 93% | 1008.1 hPa | 6.1 mm | - | - | - |
| 1778035215 | 16.11° C | 93% | 1007.8 hPa | 5.84 mm | - | - | - |
| 1778034310 | 16.11° C | 93% | 1008.1 hPa | 5.84 mm | - | - | - |
| 1778034014 | 16.11° C | 93% | 1008.1 hPa | 5.33 mm | - | - | - |
| 1778033713 | 17.22° C | 93% | 1008.5 hPa | 2.29 mm | - | - | - |
| 1778033110 | 17.22° C | 93% | 1008.1 hPa | 1.27 mm | - | - | - |
| 1778032213 | 16.11° C | 93% | 1008.5 hPa | 12.45 mm | - | - | - |
| 1778031913 | 17.22° C | 93% | 1008.5 hPa | 12.45 mm | - | - | - |
| 1778031310 | 17.22° C | 93% | 1008.5 hPa | 11.68 mm | - | - | - |
| 1778030113 | 17.22° C | 93% | 1008.8 hPa | 8.64 mm | - | - | - |
| 1778029813 | 17.22° C | 93% | 1008.8 hPa | 8.38 mm | - | - | - |
| 1778029510 | 17.22° C | 93% | 1008.8 hPa | 6.6 mm | - | - | - |
| 1778029231 | 17.22° C | 93% | 1008.8 hPa | 38.86 mm | - | - | - |
| 1778028909 | 17.22° C | 93% | 1008.8 hPa | 35.05 mm | - | - | - |
| 1778028014 | 17.78° C | 92% | 1008.8 hPa | 25.4 mm | - | - | - |
| 1778027710 | 17.78° C | 92% | 1009.1 hPa | 16.76 mm | - | - | - |
* Rain latest hour (hover to see other rain measurements)
** Current wind speed in m/s (hover to see current wind gust speed)